�������l�o���
Date,Time,MP-1(��Sv/h),MP-2(��Sv/h),MP-3(��Sv/h),MP-4(��Sv/h),MP-5(��Sv/h),MP-6(��Sv/h),MP-7(��Sv/h),����,����(m/s),���J
2017/01/07,00:00,0.395,0.237,0.408,0.377,0.340,0.194,0.167,�k�k��,3.7,��
2017/01/07,00:10,0.394,0.236,0.408,0.377,0.341,0.195,0.167,�k�k��,4.5,��
2017/01/07,00:20,0.395,0.237,0.408,0.378,0.340,0.194,0.168,�k�k��,4.8,��
2017/01/07,00:30,0.395,0.237,0.408,0.377,0.342,0.194,0.167,�k�k��,4.9,��
2017/01/07,00:40,0.395,0.237,0.410,0.378,0.342,0.194,0.167,�k�k��,3.9,��
2017/01/07,00:50,0.395,0.237,0.408,0.378,0.340,0.194,0.166,�k�k��,3.6,��
2017/01/07,01:00,0.396,0.235,0.408,0.377,0.340,0.194,0.167,�k�k��,3.5,��
2017/01/07,01:10,0.394,0.237,0.408,0.378,0.342,0.194,0.166,�k�k��,3.3,��
2017/01/07,01:20,0.395,0.235,0.408,0.378,0.341,0.194,0.168,�k��,3.1,��
2017/01/07,01:30,0.396,0.235,0.409,0.378,0.342,0.194,0.167,���k��,2.4,��
2017/01/07,01:40,0.397,0.237,0.408,0.378,0.341,0.194,0.167,���k��,3.1,��
2017/01/07,01:50,0.395,0.235,0.409,0.377,0.340,0.195,0.167,��,3.6,��
2017/01/07,02:00,0.394,0.236,0.408,0.376,0.340,0.194,0.167,��,3.3,��
2017/01/07,02:10,0.395,0.236,0.408,0.377,0.339,0.195,0.167,�k��,3.3,��
2017/01/07,02:20,0.395,0.235,0.407,0.377,0.342,0.194,0.167,�k��,2.7,��
2017/01/07,02:30,0.395,0.236,0.409,0.377,0.341,0.194,0.167,���k��,2.1,��
2017/01/07,02:40,0.395,0.235,0.407,0.376,0.341,0.194,0.166,���k��,2.0,��
2017/01/07,02:50,0.395,0.235,0.407,0.376,0.341,0.195,0.167,���k��,2.6,��
2017/01/07,03:00,0.394,0.236,0.407,0.376,0.343,0.195,0.167,���k��,2.0,��
2017/01/07,03:10,0.394,0.236,0.410,0.377,0.341,0.194,0.166,�k�k��,1.4,��
2017/01/07,03:20,0.393,0.235,0.410,0.377,0.341,0.194,0.167,�k,2.0,��
2017/01/07,03:30,0.396,0.236,0.408,0.377,0.340,0.194,0.167,�k,1.8,��
2017/01/07,03:40,0.395,0.236,0.409,0.376,0.339,0.194,0.167,�k�k��,1.8,��
2017/01/07,03:50,0.395,0.234,0.408,0.378,0.341,0.194,0.167,�k��,1.6,��
2017/01/07,04:00,0.394,0.236,0.408,0.378,0.341,0.195,0.167,�k�k��,2.1,��
2017/01/07,04:10,0.393,0.236,0.409,0.378,0.342,0.194,0.167,�k��,2.4,��
2017/01/07,04:20,0.393,0.236,0.408,0.376,0.340,0.194,0.167,���k��,3.1,��
2017/01/07,04:30,0.395,0.235,0.408,0.376,0.341,0.194,0.166,���k��,2.4,��
2017/01/07,04:40,0.393,0.234,0.408,0.377,0.341,0.193,0.166,���k��,2.0,��
2017/01/07,04:50,0.392,0.236,0.409,0.378,0.341,0.194,0.166,��,2.1,��
2017/01/07,05:00,0.395,0.237,0.407,0.377,0.341,0.193,0.167,��,2.8,��
2017/01/07,05:10,0.394,0.236,0.408,0.378,0.340,0.194,0.166,���k��,2.2,��
2017/01/07,05:20,0.395,0.236,0.408,0.376,0.340,0.193,0.166,���k��,2.0,��
2017/01/07,05:30,0.394,0.236,0.406,0.377,0.341,0.194,0.166,�k��,1.7,��
2017/01/07,05:40,0.395,0.236,0.408,0.376,0.341,0.194,0.167,�k�k��,1.2,��
2017/01/07,05:50,0.394,0.236,0.408,0.378,0.340,0.194,0.167,�k��,1.1,��
2017/01/07,06:00,0.394,0.234,0.408,0.378,0.341,0.194,0.167,�k�k��,1.4,��
2017/01/07,06:10,0.393,0.236,0.407,0.376,0.340,0.194,0.166,�k�k��,1.3,��
2017/01/07,06:20,0.394,0.235,0.407,0.376,0.341,0.194,0.166,�k�k��,1.9,��
2017/01/07,06:30,0.395,0.236,0.408,0.377,0.341,0.194,0.166,�k��,2.8,��
2017/01/07,06:40,0.393,0.236,0.408,0.375,0.339,0.194,0.166,�k��,2.0,��
2017/01/07,06:50,0.393,0.235,0.407,0.377,0.341,0.194,0.166,�k��,2.6,��
2017/01/07,07:00,0.393,0.235,0.408,0.377,0.340,0.194,0.166,�k��,2.6,��
2017/01/07,07:10,0.394,0.235,0.408,0.377,0.342,0.194,0.166,�k�k��,3.0,��
2017/01/07,07:20,0.394,0.236,0.407,0.377,0.340,0.194,0.167,�k�k��,2.7,��
2017/01/07,07:30,0.394,0.236,0.407,0.376,0.341,0.194,0.166,�k��,1.9,��
2017/01/07,07:40,0.394,0.237,0.408,0.377,0.341,0.193,0.167,���k��,1.2,��
2017/01/07,07:50,0.392,0.235,0.406,0.377,0.343,0.193,0.166,�k��,1.1,��
2017/01/07,08:00,0.393,0.236,0.408,0.374,0.340,0.194,0.166,��,1.0,��
2017/01/07,08:10,0.393,0.234,0.408,0.376,0.341,0.193,0.166,��쐼,1.0,��
2017/01/07,08:20,0.394,0.235,0.408,0.377,0.340,0.193,0.166,��쐼,2.0,��
2017/01/07,08:30,0.393,0.235,0.408,0.375,0.341,0.193,0.166,��,1.8,��
2017/01/07,08:40,0.393,0.235,0.408,0.374,0.341,0.193,0.166,���쐼,2.8,��
2017/01/07,08:50,0.392,0.236,0.407,0.376,0.340,0.193,0.166,���쐼,1.7,��
2017/01/07,09:00,0.394,0.235,0.407,0.376,0.340,0.194,0.165,�쐼,3.2,��
2017/01/07,09:10,0.394,0.234,0.408,0.375,0.341,0.193,0.166,�쐼,2.2,��
2017/01/07,09:20,0.393,0.234,0.408,0.376,0.340,0.194,0.166,���쐼,1.9,��
2017/01/07,09:30,0.394,0.234,0.407,0.375,0.340,0.194,0.166,��,1.6,��
2017/01/07,09:40,0.393,0.235,0.407,0.377,0.340,0.194,0.166,��,2.3,��
2017/01/07,09:50,0.393,0.234,0.408,0.375,0.341,0.194,0.166,��,2.6,��
2017/01/07,10:00,0.391,0.235,0.408,0.376,0.340,0.193,0.166,��,0.9,��
2017/01/07,10:10,0.391,0.234,0.406,0.377,0.341,0.194,0.166,��,2.3,��
2017/01/07,10:20,0.393,0.234,0.408,0.374,0.338,0.195,0.166,�쐼,2.9,��
2017/01/07,10:30,0.390,0.234,0.407,0.376,0.340,0.194,0.166,��,3.5,��
2017/01/07,10:40,0.392,0.235,0.406,0.375,0.339,0.194,0.166,���k��,5.0,��
2017/01/07,10:50,0.393,0.234,0.407,0.378,0.339,0.195,0.165,�k��,4.4,��
2017/01/07,11:00,0.390,0.234,0.407,0.377,0.340,0.194,0.166,���k��,5.3,��
2017/01/07,11:10,0.391,0.235,0.406,0.377,0.339,0.194,0.167,���k��,6.4,��
2017/01/07,11:20,0.392,0.234,0.405,0.377,0.340,0.194,0.167,���k��,5.9,��
2017/01/07,11:30,0.391,0.236,0.407,0.375,0.339,0.194,0.167,�k��,7.5,��
2017/01/07,11:40,0.393,0.235,0.404,0.377,0.340,0.194,0.167,���k��,8.2,��
2017/01/07,11:50,0.393,0.235,0.406,0.376,0.343,0.194,0.165,���k��,8.7,��
2017/01/07,12:00,0.393,0.235,0.406,0.376,0.340,0.195,0.166,��,9.0,��
2017/01/07,12:10,0.394,0.236,0.405,0.375,0.341,0.195,0.167,��,7.0,��
2017/01/07,12:20,0.392,0.236,0.407,0.376,0.340,0.195,0.166,�k��,8.1,��
2017/01/07,12:30,0.395,0.234,0.405,0.378,0.341,0.194,0.166,���k��,7.3,��
2017/01/07,12:40,0.392,0.235,0.406,0.376,0.339,0.194,0.167,���k��,5.5,��
2017/01/07,12:50,0.393,0.235,0.405,0.376,0.340,0.194,0.166,���k��,5.2,��
2017/01/07,13:00,0.396,0.237,0.404,0.374,0.342,0.194,0.167,���k��,4.5,��
2017/01/07,13:10,0.392,0.235,0.408,0.378,0.341,0.194,0.167,���k��,5.8,��
2017/01/07,13:20,0.392,0.236,0.403,0.376,0.343,0.195,0.167,���k��,5.5,��
2017/01/07,13:30,0.393,0.236,0.407,0.378,0.341,0.193,0.166,���k��,5.5,��
2017/01/07,13:40,0.392,0.235,0.406,0.376,0.341,0.195,0.167,���k��,6.2,��
2017/01/07,13:50,0.396,0.237,0.404,0.376,0.344,0.193,0.166,�k��,5.0,��
2017/01/07,14:00,0.393,0.236,0.407,0.378,0.341,0.194,0.167,�k��,3.2,��
2017/01/07,14:10,0.394,0.236,0.406,0.374,0.339,0.196,0.167,���k��,4.6,��
2017/01/07,14:20,0.396,0.236,0.408,0.380,0.343,0.195,0.167,���k��,5.0,��
2017/01/07,14:30,0.394,0.236,0.406,0.376,0.339,0.194,0.167,���k��,3.9,��
2017/01/07,14:40,0.395,0.236,0.408,0.379,0.340,0.194,0.167,���k��,4.6,��
2017/01/07,14:50,0.395,0.235,0.409,0.377,0.342,0.194,0.166,���k��,3.1,��
2017/01/07,15:00,0.394,0.235,0.407,0.380,0.341,0.194,0.168,�k��,2.1,��
2017/01/07,15:10,0.394,0.236,0.408,0.379,0.343,0.196,0.167,���k��,0.6,��
2017/01/07,15:20,0.395,0.237,0.406,0.377,0.343,0.195,0.168,���쐼,1.3,��
2017/01/07,15:30,0.395,0.236,0.407,0.378,0.341,0.195,0.167,���k��,1.5,��
2017/01/07,15:40,0.394,0.237,0.409,0.378,0.341,0.195,0.167,�k��,0.8,��
2017/01/07,15:50,0.394,0.236,0.407,0.378,0.343,0.194,0.168,-,CALM,��
2017/01/07,16:00,0.395,0.236,0.410,0.378,0.340,0.195,0.167,��,3.1,��
2017/01/07,16:10,0.394,0.237,0.410,0.377,0.344,0.195,0.166,��,4.2,��
2017/01/07,16:20,0.395,0.237,0.407,0.378,0.342,0.195,0.166,���k��,3.9,��
2017/01/07,16:30,0.396,0.236,0.408,0.380,0.341,0.194,0.167,���k��,6.4,��
2017/01/07,16:40,0.396,0.238,0.408,0.379,0.342,0.195,0.166,��,6.7,��
2017/01/07,16:50,0.395,0.236,0.407,0.380,0.341,0.194,0.167,���k��,7.3,��
2017/01/07,17:00,0.395,0.237,0.407,0.379,0.343,0.195,0.167,���k��,7.2,��
2017/01/07,17:10,0.396,0.237,0.409,0.376,0.341,0.195,0.167,���k��,7.3,��
2017/01/07,17:20,0.393,0.238,0.407,0.378,0.343,0.196,0.168,���k��,8.2,��
2017/01/07,17:30,0.394,0.236,0.407,0.380,0.342,0.195,0.167,���k��,7.3,��
2017/01/07,17:40,0.395,0.236,0.408,0.378,0.341,0.194,0.167,���k��,8.9,��
2017/01/07,17:50,0.396,0.236,0.409,0.376,0.342,0.194,0.167,���k��,8.2,��
2017/01/07,18:00,0.395,0.236,0.407,0.379,0.343,0.193,0.167,���k��,6.5,��
2017/01/07,18:10,0.396,0.238,0.409,0.379,0.342,0.196,0.166,���k��,7.6,��
2017/01/07,18:20,0.396,0.237,0.410,0.379,0.341,0.195,0.168,���k��,7.5,��
2017/01/07,18:30,0.395,0.237,0.407,0.380,0.343,0.195,0.167,���k��,7.6,��
2017/01/07,18:40,0.395,0.237,0.408,0.377,0.341,0.194,0.168,���k��,6.5,��
2017/01/07,18:50,0.396,0.237,0.408,0.377,0.341,0.196,0.168,���k��,7.5,��
2017/01/07,19:00,0.395,0.237,0.408,0.379,0.340,0.195,0.166,���k��,5.9,��
2017/01/07,19:10,0.394,0.236,0.407,0.378,0.342,0.195,0.167,�k��,3.5,��
2017/01/07,19:20,0.397,0.236,0.409,0.377,0.341,0.194,0.167,�k�k��,2.4,��
2017/01/07,19:30,0.397,0.236,0.410,0.378,0.341,0.196,0.167,�k,3.0,��
2017/01/07,19:40,0.395,0.237,0.406,0.379,0.342,0.195,0.168,�k�k��,2.7,��
2017/01/07,19:50,0.394,0.237,0.408,0.378,0.341,0.196,0.168,�k��,1.8,��
2017/01/07,20:00,0.397,0.237,0.410,0.378,0.342,0.195,0.167,���k��,2.7,��
2017/01/07,20:10,0.395,0.235,0.407,0.380,0.340,0.195,0.168,���k��,2.2,��
2017/01/07,20:20,0.394,0.238,0.407,0.378,0.342,0.194,0.167,��,0.9,��
2017/01/07,20:30,0.396,0.235,0.409,0.378,0.342,0.195,0.167,�k��,2.2,��
2017/01/07,20:40,0.394,0.236,0.410,0.377,0.340,0.195,0.167,�k��,2.1,��
2017/01/07,20:50,0.395,0.236,0.408,0.380,0.341,0.195,0.166,�k��,1.4,��
2017/01/07,21:00,0.395,0.237,0.408,0.379,0.341,0.196,0.167,�k�k��,1.7,��
2017/01/07,21:10,0.394,0.237,0.409,0.378,0.341,0.195,0.168,�k��,1.2,��
2017/01/07,21:20,0.396,0.237,0.408,0.377,0.341,0.196,0.167,��,2.5,��
2017/01/07,21:30,0.395,0.236,0.408,0.379,0.342,0.195,0.167,���k��,2.8,��
2017/01/07,21:40,0.397,0.236,0.409,0.379,0.341,0.196,0.167,���k��,2.1,��
2017/01/07,21:50,0.396,0.235,0.409,0.379,0.340,0.197,0.167,���k��,3.0,��
2017/01/07,22:00,0.396,0.236,0.407,0.378,0.341,0.196,0.167,���k��,3.0,��
2017/01/07,22:10,0.394,0.237,0.409,0.378,0.342,0.195,0.168,���k��,4.1,��
2017/01/07,22:20,0.395,0.239,0.410,0.378,0.342,0.195,0.167,���k��,4.1,��
2017/01/07,22:30,0.397,0.237,0.409,0.378,0.342,0.194,0.168,���k��,4.6,��
2017/01/07,22:40,0.395,0.237,0.408,0.380,0.342,0.197,0.168,���k��,4.6,��
2017/01/07,22:50,0.395,0.237,0.409,0.378,0.343,0.194,0.167,���k��,4.6,��
2017/01/07,23:00,0.396,0.237,0.409,0.378,0.343,0.196,0.167,��,4.8,��
2017/01/07,23:10,0.396,0.236,0.408,0.379,0.342,0.195,0.167,��,5.7,��
2017/01/07,23:20,0.398,0.237,0.409,0.380,0.342,0.195,0.167,��,6.2,��
2017/01/07,23:30,0.395,0.237,0.408,0.378,0.341,0.195,0.167,��,6.2,��
2017/01/07,23:40,0.395,0.236,0.408,0.378,0.342,0.195,0.168,��,7.0,��
2017/01/07,23:50,0.396,0.237,0.409,0.378,0.341,0.195,0.167,��,7.5,��
